Weather History for KISO - November, 2013

Change the Weather History Date:

Thursday, November 14, 2013

  Actual Average Record
Temperature  
Mean Temperature 40 °F -  
Max Temperature 57 °F 62 °F 82 °F (1993)
Min Temperature 23 °F 42 °F 23 °F (1976)
Degree Days  
Heating Degree Days 25    
Moisture  
Dew Point 24 °F    
Average Humidity 74    
Maximum Humidity 93    
Minimum Humidity 23    
Precipitation  
Precipitation 0.00 in - - ()
Sea Level Pressure  
Sea Level Pressure 30.43 in    
Wind  
Wind Speed 1 mph (SW)    
Max Wind Speed 9 mph    
Max Gust Speed -    
Visibility 10 miles    
Events      
Averages and records for this station are not official NWS values.
T = Trace of Precipitation, MM = Missing Value Source: NWS Daily Summary

Daily Weather History Graph

Daily Weather History Graph

Search for Another Location

Airport or City:

Trip Planner

Search our weather history database for the weather conditions in past years. The results will help you decide how hot, cold, wet, or windy it might be!

Date:

Astronomy

Nov. 14, 2013 Rise Set
Actual Time 6:44 AM EST 5:04 PM EST
Civil Twilight 6:17 AM EST 5:31 PM EST
Nautical Twilight 5:47 AM EST 6:02 PM EST
Astronomical Twilight 5:17 AM EST 6:32 PM EST
Moon 3:19 PM EST (11/14) 3:43 AM EST (11/14)
Length of Visible Light 11h 13m
Length of Day
10h 19m
Waxing Gibbous, 91% of the Moon is Illuminated
Nov 14
Waxing Gibbous
Nov 17
Full
Nov 25
Last Quarter
Dec 2
New
Dec 9
First Quarter

Hourly Weather History & Observations

Time (EST) Temp. Windchill Dew Point Humidity Pressure Visibility Wind Dir Wind Speed Gust Speed Precip Events Conditions
12:15 AM 26.2 °F - 24.1 °F 92% 30.48 in 10.0 mi Calm Calm - N/A   Clear
12:35 AM 25.9 °F - 23.4 °F 90% 30.48 in 10.0 mi Calm Calm - N/A   Clear
12:55 AM 25.5 °F - 23.0 °F 90% 30.48 in 10.0 mi Calm Calm - N/A   Clear
1:15 AM 24.6 °F - 22.5 °F 91% 30.47 in 10.0 mi Calm Calm - N/A   Clear
1:35 AM 24.4 °F - 22.6 °F 93% 30.47 in 10.0 mi Calm Calm - N/A   Clear
1:55 AM 24.8 °F - 22.8 °F 92% 30.47 in 10.0 mi Calm Calm - N/A   Clear
2:15 AM 24.8 °F - 22.3 °F 90% 30.47 in 10.0 mi Calm Calm - N/A   Clear
2:35 AM 25.3 °F - 22.6 °F 89% 30.46 in 10.0 mi Calm Calm - N/A   Clear
2:55 AM 25.3 °F - 23.0 °F 91% 30.46 in 10.0 mi Calm Calm - N/A   Clear
3:15 AM 25.0 °F - 22.1 °F 89% 30.46 in 10.0 mi Calm Calm - N/A   Clear
3:35 AM 25.3 °F - 22.5 °F 89% 30.45 in 10.0 mi Calm Calm - N/A   Clear
3:55 AM 25.0 °F - 22.1 °F 89% 30.45 in 10.0 mi Calm Calm - N/A   Clear
4:15 AM 24.1 °F - 22.1 °F 92% 30.46 in 10.0 mi Calm Calm - N/A   Clear
4:35 AM 25.3 °F - 22.6 °F 89% 30.47 in 10.0 mi Calm Calm - N/A   Clear
4:55 AM 25.7 °F - 22.6 °F 88% 30.46 in 10.0 mi Calm Calm - N/A   Clear
5:15 AM 23.9 °F - 21.7 °F 91% 30.46 in 10.0 mi Calm Calm - N/A   Clear
5:35 AM 25.5 °F - 21.7 °F 86% 30.47 in 10.0 mi Calm Calm - N/A   Clear
5:55 AM 24.4 °F - 22.1 °F 91% 30.47 in 10.0 mi Calm Calm - N/A   Clear
6:56 AM 23.0 °F - 21.2 °F 93% 30.48 in 10.0 mi Calm Calm - N/A   Clear
7:56 AM 30.2 °F - 26.6 °F 86% 30.50 in 10.0 mi Calm Calm - N/A   Clear
8:56 AM 41.0 °F 38.0 °F 24.8 °F 53% 30.51 in 4.0 mi SW 4.6 mph - N/A   Clear
9:56 AM 46.4 °F 42.9 °F 21.2 °F 37% 30.50 in 10.0 mi WSW 6.9 mph - N/A   Clear
10:56 AM 50.0 °F - 21.2 °F 32% 30.49 in 10.0 mi SW 6.9 mph - N/A   Clear
11:56 AM 51.8 °F - 17.6 °F 26% 30.46 in 10.0 mi SSW 6.9 mph - N/A   Clear
12:56 PM 53.6 °F - 17.6 °F 24% 30.43 in 10.0 mi SSW 9.2 mph - N/A   Clear
1:56 PM 55.4 °F - 17.6 °F 23% 30.41 in 10.0 mi SSW 6.9 mph - N/A   Clear
2:56 PM 57.2 °F - 19.4 °F 23% 30.40 in 10.0 mi SW 4.6 mph - N/A   Clear
3:56 PM 55.4 °F - 19.4 °F 25% 30.40 in 10.0 mi SW 5.8 mph - N/A   Clear
4:56 PM 50.0 °F - 23.0 °F 35% 30.38 in 10.0 mi SW 4.6 mph - N/A   Clear
5:56 PM 39.2 °F - 32.0 °F 75% 30.38 in 10.0 mi Calm Calm - N/A   Clear
6:56 PM 35.6 °F - 28.4 °F 75% 30.38 in 10.0 mi Calm Calm - N/A   Clear
8:15 PM 34.9 °F - 27.9 °F 76% 30.38 in 10.0 mi Calm Calm - N/A   Clear
8:35 PM 35.6 °F - 27.9 °F 73% 30.37 in 10.0 mi Calm Calm - N/A   Clear
8:55 PM 35.4 °F - 27.0 °F 71% 30.38 in 10.0 mi Calm Calm - N/A   Clear
9:15 PM 33.8 °F - 27.7 °F 78% 30.38 in 10.0 mi Calm Calm - N/A   Clear
9:35 PM 33.4 °F - 27.9 °F 80% 30.38 in 10.0 mi Calm Calm - N/A   Clear
9:55 PM 34.7 °F - 26.8 °F 73% 30.38 in 10.0 mi Calm Calm - N/A   Clear
10:15 PM 32.0 °F - 27.9 °F 85% 30.38 in 10.0 mi Calm Calm - N/A   Clear
10:35 PM 32.2 °F - 27.5 °F 83% 30.37 in 10.0 mi Calm Calm - N/A   Clear
10:55 PM 31.1 °F - 27.3 °F 86% 30.37 in 10.0 mi Calm Calm - N/A   Clear
11:15 PM 29.8 °F - 26.6 °F 88% 30.37 in 10.0 mi Calm Calm - N/A   Clear
11:35 PM 30.2 °F - 27.1 °F 88% 30.37 in 10.0 mi Calm Calm - N/A   Clear
11:55 PM 31.8 °F - 27.5 °F 84% 30.37 in 10.0 mi Calm Calm - N/A   Clear